Location: Newark
(41.0400°S, 62.7845°W)
Time: 04:48:42
(UTC+00:00)

Courier 1B Rocket - Pass Details

Date: 07 December 2021
Orbit: 920 x 1202 km, 28.2° (Epoch: 27 January)

Event Time Altitude Azimuth Distance (km) Brightness Sun altitude
Rises 16:47:43 0° 283° (WNW) 4,027 8.4 69.4°
Reaches altitude 10° 16:50:59 10° 294° (WNW) 3,095 8.0 69.0°
Maximum altitude 16:57:11 27° 348° (NNW) 2,138 7.6 68.4°
Drops below altitude 10° 17:03:27 10° 41° (NE) 3,135 7.9 67.7°
Sets 17:06:47 0° 52° (NE) 4,087 8.2 67.2°
